[Date Prev][Date Next][Thread Prev][Thread Next] - [Date Index][Thread Index][Author Index]
2 Line ISS Keps 2-26
- Subject: [sarex] 2 Line ISS Keps 2-26
- From: "Dave Larsen PhD" <doc@xxxxxxxxxxx>
- Date: Fri, 25 Feb 2005 18:30:48 -0800
ISS
1 25544U 98067A 05056.93815972 .00013918 00000-0 11667-3 0 8940
2 25544 51.6472 109.9157 0004343 133.8665 216.2435 15.70262966358187
----
Via the sarex mailing list at AMSAT.ORG courtesy of AMSAT-NA.
To unsubscribe, send "unsubscribe sarex" to Majordomo@amsat.org
AMSAT Home